STARLINK-35451, 66469

Orbit data source: Space-Track

STARLINK-35451, 66469 is a payload satellite owned by SpaceX/Seattle (US) in LEO that was launched on Sat, 15 Nov 2025 UTC via an FALCON 9 launch vehicle from the Air Force Eastern Test Range (AFETR). Payload-class satellites include a variety of spacecraft equipped with specific instruments for various scientific and technological missions. These include communications satellites like Starlink; space stations such as the ISS; scientific satellites like the Hubble; Earth observation satellites from companies like Planet Labs, Umbra, and HawkEye 360; GPS; miniature CubeSats for education and research; and military/defense satellites.

Loading next visibility...
Identifier
66469, 2025-262P
Orbit
LEO
Country
Flag of USUS
Related business
Manufacturer
SpaceX/Seattle
Mission
Operational Commercial Communications
Bus & Motor
STARLINK V2MO, Unknown motor
Mass
575 kg wet, ~530 kg dry
Launch date (UTC)
2025-11-15 (7 months ago)
Launch vehicle
FALCON 9
Launch site
Air Force Eastern Test Range (AFETR)
Object type
Payload
Rocket body
Debris
Shape & HBR
Box + 2 Pan, 17.7 m
Radar Cross Section
36.964 m², Large (>1 m²)

Expand to show TLE details & history
Last TLE update: 18 hours ago

TLE from 18 hours ago
0 STARLINK-35451
1 66469U 25262P   26171.10624056 -.00005038  00000-0 -17374-3 0  9992
2 66469  43.0012  77.4372 0001192 266.5794  93.4922 15.27567138 34578
Epoch: 2026-06-20T02:32Z
TLE epoch observation values (Epoch: 2026-06-20T02:32:59.184Z)
Latitude
0.00003°
Longitude
130.86501°
Altitude
482.913 km
Speed
7.626 km/s
True Right ascension
05h 09m 44s
True Declination
0° 00' 00"
Sunlit
Object was in daylight at epoch
Visualization orbit readout
Latitude
Unknown
Longitude
Unknown
Altitude
Unknown
Speed
Unknown
Apparent Right ascension
Unknown
Apparent Declination
Unknown
Sunlit
N/A
Visualization observer readout
Local Sidereal Time
07:17:16
Azimuth
Unknown
Elevation
Unknown
Doppler factor
Unknown
Orbital elements
Apogee altitude
485.851 km
Perigee altitude
484.214 km
Semi-major axis
6,863.17 km
Eccentricity
0.00012
Inclination
43.0012°
RAAN
77.4372°
Arg. of periapsis
266.5794°
True anomaly
93.50583°
Mean anomaly
93.4922°
Eccentric anomaly
93.49902°
Mean motion
3.8173 °/min
Orbital period
94.31 mins
BSTAR
-0.00017374
Loading maneuver chart data...
Computing Atmospheric mass density...
Loading historical data...
Loading historical data...
Loading historical data...
Loading historical data...
Loading historical data...
Loading historical data...
Loading historical data...

Documentation

Showing up to 5 results
|